RH
36 35 31 13 18 22 20 20 21 20 19 18 16 9 7 7 5 5 4 3 4 4 4 3 3 5 12 24 32 44 62 51 66 75 76 84 92 66 78 80 79 81 72 70 56
40 38 34 20 16 21 20 21 21 19 18 17 14 7 8 6 5 4 4 4 4 4 4 4 4 8 18 31 44 49 62 58 54 71 87 93 95 92 99 71 71 78 75 79 74
43 42 38 29 14 19 20 22 23 21 17 16 10 7 7 5 5 4 4 4 4 4 4 4 5 13 20 42 52 56 55 59 47 70 93 96 95 100 99 68 50 65 69 74 68
45 45 42 36 20 16 22 24 24 23 18 14 8 8 7 5 5 4 4 4 4 4 4 5 11 21 33 48 48 54 62 62 56 74 93 96 99 98 93 68 50 56 70 76 60
47 48 45 40 24 15 21 25 25 24 18 11 8 8 6 5 4 4 4 4 4 4 4 6 17 31 40 47 48 57 67 63 67 94 96 93 98 92 98 99 51 44 57 62 68
48 51 48 43 28 16 20 26 25 24 18 9 8 8 6 5 4 5 5 5 4 4 5 12 28 45 36 39 53 68 59 66 81 89 94 89 100 100 93 94 69 47 53 55 62
51 52 53 52 33 18 21 26 26 24 18 10 8 8 6 5 5 5 5 5 5 5 6 16 33 45 38 37 49 54 59 62 63 62 94 89 85 100 97 82 82 70 68 52 77
54 57 56 50 34 19 23 25 27 23 16 9 8 7 6 6 5 5 5 5 5 5 9 27 35 39 36 47 54 63 55 50 57 67 90 82 100 96 100 89 79 87 89 88 90
58 58 59 55 38 22 24 27 28 22 16 9 8 7 6 6 6 5 5 5 5 6 12 23 32 34 45 53 64 66 73 69 59 91 93 91 94 100 96 99 99 80 65 65 100
62 61 58 55 44 26 26 28 26 22 17 9 8 7 6 6 6 6 5 5 6 7 11 21 31 30 46 78 99 88 81 75 76 85 100 97 97 98 99 97 98 99 88 94 100
66 63 61 57 48 30 28 32 27 19 18 10 9 7 6 6 6 6 5 5 6 8 12 27 36 49 50 65 75 73 74 79 70 81 93 98 95 94 96 98 98 98 98 98 93
71 66 63 57 52 33 28 32 29 20 16 11 10 7 7 7 6 6 5 5 6 7 22 28 42 59 47 43 60 65 73 75 62 69 89 96 96 95 96 96 96 98 99 100 94
76 70 66 58 54 34 28 34 27 18 15 10 11 8 7 7 6 6 6 5 7 8 20 37 43 44 41 44 42 58 75 80 83 66 96 97 92 92 95 100 97 98 98 98 89
78 76 69 60 53 37 32 32 23 16 16 12 10 8 7 7 7 7 6 6 7 8 18 29 43 39 39 42 56 61 72 74 65 82 97 94 96 89 93 94 96 97 97 98 100
83 80 71 63 55 37 35 33 20 17 41 12 10 9 7 8 7 7 6 6 6 8 16 40 42 39 39 53 58 66 58 66 86 87 80 77 87 95 83 70 84 86 96 99 92
88 90 85 67 57 39 38 33 18 19 18 11 10 8 8 8 7 7 6 6 7 9 14 35 44 52 56 46 56 61 61 56 75 85 89 95 84 91 92 98 90 86 94 100 100
95 98 92 68 61 41 41 29 19 11 14 10 9 8 8 8 7 6 7 7 8 10 14 23 38 57 55 32 48 61 54 72 72 84 98 89 72 91 98 94 98 98 88 95 98
100 100 91 70 63 41 44 24 15 15 11 11 9 8 8 8 7 7 7 8 11 14 33 24 28 53 61 63 61 74 88 98 95 100 95 79 86 94 96 96 95 98 96 98 100
100 100 98 75 66 44 44 24 16 13 11 11 9 8 8 8 7 7 8 15 17 18 28 30 26 38 68 65 55 70 86 97 100 95 98 89 84 80 90 86 97 87 96 98 99
100 100 100 92 64 48 42 23 19 13 11 10 8 9 8 8 7 7 8 19 17 20 24 28 33 33 54 58 62 66 76 92 92 96 98 82 95 97 86 84 96 84 90 95 100
100 100 99 98 60 50 38 25 18 13 10 11 8 8 8 8 7 8 9 17 14 18 20 30 35 33 54 74 74 69 65 82 93 99 98 99 92 100 100 94 96 96 92 89 96
99 100 99 98 68 47 37 23 17 14 10 9 8 9 8 8 7 8 9 11 13 17 23 31 37 42 64 77 74 79 72 79 91 88 97 98 85 97 96 100 96 96 98 92 93
99 100 100 99 89 47 41 27 16 13 10 9 8 8 8 8 7 8 9 12 15 18 19 36 41 38 38 60 69 83 75 71 87 96 99 98 90 94 95 96 97 98 97 94 95
100 99 99 100 94 50 42 31 18 14 10 9 9 8 8 8 7 9 10 11 15 19 19 30 36 45 57 78 93 93 88 72 70 87 88 94 89 73 72 82 92 95 95 91 91
99 98 99 98 97 95 46 35 16 12 10 9 9 8 9 8 7 9 10 11 17 18 18 24 29 32 50 87 92 93 98 83 68 77 93 87 82 77 75 79 90 97 97 92 95
100 99 99 99 99 78 56 45 19 11 9 8 9 8 9 9 8 9 10 14 17 18 14 16 17 20 48 91 89 84 100 84 69 75 92 78 72 75 75 74 95 97 94 98 96
98 99 100 99 99 91 80 59 21 9 9 8 8 9 10 10 9 9 10 13 19 20 14 12 10 18 61 84 82 92 86 73 65 80 84 78 73 65 62 66 80 94 95 94 96
Wind_Speed
15 17 19 19 16 17 20 22 22 23 21 19 17 14 14 21 22 25 29 34 37 36 35 35 31 27 22 18 17 18 16 22 23 23 31 25 25 20 25 27 21 20 28 31 37
14 16 18 19 17 17 20 22 22 23 20 18 15 14 17 23 21 27 31 32 34 35 36 36 32 24 18 14 16 19 17 21 23 26 29 31 29 28 23 21 21 23 22 25 30
14 16 17 18 18 17 18 21 23 23 21 16 13 13 19 23 19 27 30 32 34 36 36 36 31 26 20 15 19 22 22 24 23 20 24 28 24 20 23 24 17 15 19 25 29
13 14 16 18 19 18 18 21 23 23 20 15 12 13 19 23 20 27 31 35 37 36 36 34 29 24 18 15 21 21 22 25 22 18 18 24 25 21 19 20 16 14 16 21 28
13 14 15 17 18 17 18 21 24 23 19 13 12 12 19 22 24 28 32 35 35 35 35 31 27 23 19 24 22 21 25 22 18 15 20 21 16 14 21 14 8 12 16 17 25
14 15 15 16 19 17 17 21 23 23 17 8 16 10 18 21 26 33 36 35 34 34 32 28 26 23 24 27 19 23 22 17 12 15 17 16 12 18 12 12 5 8 14 16 22
13 14 16 16 18 18 17 21 23 22 16 5 18 10 18 22 26 33 36 35 33 32 28 25 21 22 28 25 23 19 16 3 15 17 19 9 16 19 23 13 9 6 7 14 18
13 14 15 16 17 18 17 21 22 21 13 4 16 9 18 25 29 28 31 33 32 29 23 21 20 24 27 22 20 26 16 17 20 20 16 14 16 24 23 17 9 5 6 6 16
13 14 14 16 17 18 17 20 22 18 11 5 14 7 20 23 24 34 34 31 30 26 22 20 22 25 25 29 25 24 24 24 20 19 16 17 14 24 18 14 7 5 8 7 2
13 12 13 15 17 18 17 21 22 18 10 5 13 8 21 21 24 31 33 31 28 26 22 17 22 25 30 27 19 24 21 24 22 16 17 11 15 18 17 11 3 6 7 9 3
13 13 13 15 17 18 18 21 21 14 13 6 12 15 18 25 24 29 30 29 25 25 19 15 25 27 34 21 18 19 15 21 9 6 10 15 20 23 28 10 11 12 9 3 6
13 13 12 15 17 18 17 20 20 15 11 8 11 17 19 23 20 27 30 28 26 27 17 19 29 23 29 18 19 13 21 26 5 11 4 6 26 28 31 34 20 6 6 5 6
13 13 13 17 17 18 17 19 20 16 7 8 12 16 22 26 26 33 33 31 25 26 20 18 26 20 30 20 23 17 26 26 15 11 6 8 12 29 30 36 28 13 7 3 5
14 13 13 16 17 18 17 18 18 13 4 4 12 16 20 27 24 31 31 28 25 22 17 11 23 21 30 18 24 20 27 11 8 12 7 14 1 49 42 40 35 19 1 8 6
15 14 14 15 17 17 16 17 16 9 3 6 9 15 19 22 21 27 29 28 23 18 19 15 24 26 36 22 22 29 15 6 6 6 12 25 6 33 45 45 40 32 14 0 6
18 15 15 15 16 16 15 16 13 4 3 7 11 15 15 20 20 24 24 28 20 10 15 10 20 19 33 23 17 28 3 4 3 5 6 17 4 20 47 45 40 32 22 5 3
21 18 14 14 16 14 13 13 7 4 6 5 11 15 15 21 19 25 27 31 32 17 21 11 13 18 31 33 18 31 20 5 6 7 1 13 10 8 32 38 37 35 26 14 3
25 21 13 14 14 13 11 10 6 5 6 8 11 12 13 21 16 22 23 25 27 26 10 18 10 25 24 28 22 27 19 6 1 3 4 8 9 5 27 33 32 30 24 15 4
26 24 13 13 14 12 10 5 5 6 6 7 9 7 12 17 15 18 22 23 24 26 16 15 6 18 17 20 26 14 12 9 6 4 3 5 5 11 32 32 31 31 25 12 1
26 25 16 10 13 12 10 9 9 8 7 5 4 4 10 14 13 16 19 14 19 20 18 19 6 15 12 12 25 25 19 5 6 4 4 5 4 18 41 42 34 33 28 17 1
27 26 18 8 13 12 11 9 10 8 6 3 4 5 9 12 12 12 15 10 16 17 17 19 9 10 9 16 24 29 28 10 4 3 2 3 3 25 33 35 33 32 28 22 6
29 26 21 13 11 10 12 10 9 8 7 4 3 5 7 11 8 9 12 12 14 15 15 17 10 7 9 8 16 20 23 20 5 6 4 2 3 25 30 29 26 28 25 21 14
31 27 22 16 8 12 14 12 10 9 7 4 3 4 7 8 6 7 11 13 13 12 14 14 10 7 3 4 10 14 22 19 9 7 4 2 5 23 26 24 24 26 25 20 13
29 23 23 19 15 12 14 14 12 9 8 6 4 3 6 7 7 7 11 11 12 10 12 10 7 7 3 5 9 10 13 20 15 4 12 5 24 23 26 26 24 25 24 21 16
29 28 26 12 19 13 16 12 11 10 10 7 4 3 5 4 8 7 11 13 10 9 10 10 6 11 10 3 6 13 12 16 16 12 5 14 19 25 28 30 26 27 25 22 15
31 30 26 25 18 12 15 14 14 12 10 9 5 3 5 6 6 10 11 10 8 9 8 9 8 12 6 5 7 14 7 13 15 12 7 15 17 23 22 22 21 24 25 23 16
33 28 27 23 21 16 16 15 12 13 11 9 6 4 5 6 9 10 12 9 9 8 7 9 12 10 2 6 12 3 5 12 15 9 11 19 21 23 22 21 21 23 24 24 18
Wind_Direction
358 358 3 360 2 2 2 359 2 1 1 360 359 4 6 359 357 355 353 352 349 345 345 347 344 339 331 326 321 318 292 312 310 314 316 322 306 305 283 280 253 236 245 253 251
354 355 3 357 360 358 357 356 2 2 0 359 2 6 1 359 0 357 354 350 347 346 351 348 346 343 336 326 324 324 307 322 312 314 315 306 297 301 293 278 266 250 245 256 262
346 350 358 356 355 355 353 355 359 0 360 0 5 10 359 359 3 356 355 348 352 353 351 348 343 344 344 330 330 325 325 326 322 319 322 321 325 314 297 276 268 257 254 260 262
335 343 353 352 353 352 351 352 356 358 357 358 10 3 358 358 5 355 354 354 355 353 351 349 347 351 341 333 332 320 342 330 327 320 325 340 337 336 328 312 274 257 257 274 271
329 337 348 349 350 348 348 349 354 356 355 1 3 357 357 358 357 354 359 357 354 353 351 348 350 357 351 340 341 334 334 336 334 334 334 347 356 352 358 346 287 240 254 277 293
325 333 342 347 347 345 346 347 351 354 353 8 2 355 357 355 359 356 359 358 355 354 352 352 357 353 353 343 343 333 329 344 356 352 353 359 16 359 6 342 348 257 255 269 291
322 332 336 342 345 340 342 345 348 350 350 342 360 351 353 359 3 359 354 359 358 354 354 354 357 353 349 351 342 340 347 339 356 2 355 348 346 353 343 325 325 279 275 272 304
316 330 332 334 342 338 340 341 345 350 351 352 355 342 355 359 359 360 1 354 359 358 355 360 1 357 356 359 8 21 10 20 13 3 12 6 356 354 344 340 325 311 236 327 310
312 327 329 330 337 335 338 338 340 349 348 340 350 348 1 0 351 356 0 359 1 3 2 1 3 2 0 5 11 11 359 1 8 14 5 7 14 2 336 343 320 234 274 261 44
308 319 324 327 331 334 334 336 337 342 344 336 1 0 351 358 358 2 359 1 2 7 2 359 11 11 12 10 0 341 346 348 350 1 8 11 21 10 9 344 132 205 243 251 129
300 312 321 322 329 330 331 334 333 325 322 300 348 355 354 356 1 1 2 4 5 6 6 10 4 15 7 353 354 345 344 338 351 360 29 52 31 26 29 30 116 167 201 209 65
293 304 318 318 326 326 327 330 331 320 302 268 328 348 351 353 358 5 6 5 7 12 15 17 12 11 0 349 347 351 353 346 352 341 289 258 24 30 27 31 39 56 205 151 101
288 301 318 315 322 324 327 330 328 329 293 253 326 343 351 355 359 3 5 5 10 12 12 28 9 14 4 5 357 6 348 341 333 13 329 294 7 20 23 27 35 46 80 171 128
281 292 305 309 318 323 325 328 330 327 261 279 329 346 351 357 358 4 3 6 7 13 12 14 7 10 18 15 358 351 343 350 32 22 19 9 25 16 13 18 26 40 70 239 216
277 289 300 306 314 323 325 327 330 320 342 310 333 346 355 359 1 0 1 5 8 12 14 12 7 8 18 3 2 349 350 29 29 67 51 24 56 6 13 15 13 14 19 153 240
269 277 291 300 310 319 322 324 323 304 257 319 335 348 349 354 360 3 1 6 18 13 18 14 12 20 7 21 9 4 28 40 23 22 46 15 34 14 13 1 2 5 9 15 196
263 266 275 292 306 313 316 322 300 234 307 320 335 338 346 355 356 357 3 12 24 18 11 26 20 15 5 15 21 16 36 360 7 21 235 0 34 19 5 3 0 1 3 17 181
259 259 260 284 299 305 308 314 256 259 295 318 330 337 351 358 354 355 1 15 22 20 7 8 9 14 11 21 7 19 29 59 196 340 300 6 14 342 355 4 0 4 8 354 8
255 258 241 273 292 294 296 281 260 277 291 319 331 340 354 356 357 355 357 16 14 14 17 359 11 13 12 19 22 20 22 28 320 290 298 356 6 8 349 9 8 7 13 11 107
254 259 243 251 279 280 278 269 261 263 284 309 340 337 349 355 357 358 3 2 8 7 9 356 341 8 8 26 29 33 25 37 3 22 349 338 8 351 355 358 5 6 10 19 54
254 256 245 237 264 272 264 260 263 258 276 303 321 339 352 353 351 357 1 357 359 0 2 352 360 10 22 21 23 24 31 32 9 15 143 309 348 0 353 353 0 0 8 3 19
249 253 246 220 248 264 257 258 250 254 262 271 296 342 356 351 339 353 352 356 351 358 359 353 351 351 17 23 24 23 27 23 14 338 347 283 318 349 352 358 359 4 4 357 349
252 253 248 235 226 252 258 259 246 250 254 255 281 338 351 350 340 336 346 347 345 353 359 353 344 337 350 13 6 13 17 18 9 344 356 4 327 341 346 3 3 7 8 360 347
256 248 243 230 216 240 257 259 246 247 244 241 259 319 337 336 339 316 345 341 336 344 347 346 338 353 272 295 321 353 359 11 10 339 317 286 326 346 352 2 5 10 9 3 346
250 248 241 233 215 221 244 255 245 244 237 233 240 285 318 326 327 328 342 333 329 333 340 342 325 335 320 288 322 328 334 354 3 351 336 327 339 350 352 351 0 4 11 6 346
253 253 244 234 223 198 244 255 251 243 238 223 232 269 298 315 325 320 333 330 319 325 331 347 330 336 330 290 307 314 313 342 354 349 346 344 346 349 351 347 352 2 7 6 356
249 260 243 238 218 205 236 247 247 237 231 224 215 252 284 310 324 324 327 324 310 312 328 342 347 339 346 311 302 314 351 344 353 344 356 359 348 346 351 351 356 2 4 2 3